Weather History for Waukesha, WI

Change the Weather History Date:

Friday, March 15, 2013

  Actual Average Record
Temperature  
Mean Temperature 30 °F -  
Max Temperature 33 °F 41 °F 71 °F (2012)
Min Temperature 28 °F 24 °F 3 °F (1993)
Degree Days  
Heating Degree Days 34    
Moisture  
Dew Point 28 °F    
Average Humidity 92    
Maximum Humidity 100    
Minimum Humidity 80    
Precipitation  
Precipitation 0.00 in - - ()
Sea Level Pressure  
Sea Level Pressure 29.92 in    
Wind  
Wind Speed 7 mph (NW)    
Max Wind Speed 16 mph    
Max Gust Speed 22 mph    
Visibility 6 miles    
Events Rain , Snow    
Averages and records for this station are not official NWS values.
T = Trace of Precipitation, MM = Missing Value Source: NWS Daily Summary

Daily Weather History Graph

Daily Weather History Graph

Search for Another Location

Airport:

Trip Planner

Search our weather history database for the weather conditions in past years. The results will help you decide how hot, cold, wet, or windy it might be!

Date:

Astronomy

Mar. 15, 2013 Rise Set
Actual Time 7:04 AM CDT 6:59 PM CDT
Civil Twilight 6:36 AM CDT 7:27 PM CDT
Nautical Twilight 6:03 AM CDT 8:01 PM CDT
Astronomical Twilight 5:29 AM CDT 8:34 PM CDT
Moon 8:48 AM CDT (3/15) 11:21 PM CDT (3/15)
Length of Visible Light 12h 51m
Length of Day
11h 55m
Waxing Crescent, 15% of the Moon is Illuminated
Mar 15
Waxing Crescent
Mar 19
First Quarter
Mar 27
Full
Apr 2
Last Quarter
Apr 10
New

Hourly Weather History & Observations

Time (CDT) Temp. Windchill Dew Point Humidity Pressure Visibility Wind Dir Wind Speed Gust Speed Precip Events Conditions
12:15 AM 28.4 °F 21.2 °F 26.6 °F 93% 30.04 in 5.0 mi WSW 6.9 mph - N/A   Clear
12:35 AM 28.4 °F 21.2 °F 26.6 °F 93% 30.03 in 5.0 mi WSW 6.9 mph - N/A   Clear
12:55 AM 28.4 °F 21.2 °F 26.6 °F 93% 30.02 in 5.0 mi WSW 6.9 mph - N/A   Clear
1:15 AM 28.4 °F 21.2 °F 26.6 °F 93% 30.02 in 5.0 mi WSW 6.9 mph - N/A   Clear
1:35 AM 28.4 °F 23.3 °F 28.4 °F 100% 30.01 in 5.0 mi WSW 4.6 mph - N/A   Clear
1:55 AM 28.4 °F 19.7 °F 28.4 °F 100% 30.01 in 5.0 mi WSW 9.2 mph - N/A   Clear
2:15 AM 28.4 °F 21.2 °F 28.4 °F 100% 30.00 in 5.0 mi WSW 6.9 mph - N/A   Clear
2:35 AM 30.2 °F 21.9 °F 28.4 °F 93% 29.99 in 4.0 mi WSW 9.2 mph - N/A   Clear
2:55 AM 30.2 °F 22.6 °F 28.4 °F 93% 29.98 in 4.0 mi WSW 8.1 mph - N/A   Clear
3:15 AM 30.2 °F 23.4 °F 28.4 °F 93% 29.98 in 4.0 mi WSW 6.9 mph - N/A   Clear
3:35 AM 30.2 °F 24.3 °F 28.4 °F 93% 29.97 in 4.0 mi WSW 5.8 mph - N/A   Clear
4:15 AM 28.4 °F 22.2 °F 28.4 °F 100% 29.96 in 3.0 mi WNW 5.8 mph - N/A   Clear
4:35 AM 28.4 °F 22.2 °F 28.4 °F 100% 29.95 in 2.5 mi WNW 5.8 mph - N/A   Clear
4:55 AM 28.4 °F 23.3 °F 28.4 °F 100% 29.95 in 2.5 mi West 4.6 mph - N/A   Clear
5:15 AM 28.4 °F 23.3 °F 28.4 °F 100% 29.95 in 3.0 mi West 4.6 mph - N/A   Clear
5:35 AM 28.4 °F 23.3 °F 28.4 °F 100% 29.95 in 3.0 mi West 4.6 mph - N/A   Clear
5:45 AM 28.4 °F 23.3 °F 26.6 °F 93% 29.95 in 3.0 mi West 4.6 mph - N/A   Clear
7:45 AM 28.4 °F 22.2 °F 28.4 °F 100% 29.94 in 4.0 mi West 5.8 mph - N/A   Mostly Cloudy
8:45 AM 28.4 °F 22.2 °F 28.4 °F 100% 29.93 in 4.0 mi West 5.8 mph - N/A   Scattered Clouds
9:45 AM 30.2 °F 24.3 °F 28.4 °F 93% 29.92 in 5.0 mi WNW 5.8 mph - N/A   Scattered Clouds
10:45 AM 32.0 °F 27.5 °F 28.4 °F 87% 29.91 in 5.0 mi NW 4.6 mph - N/A   Scattered Clouds
11:45 AM 33.8 °F - 28.4 °F 81% 29.91 in 4.0 mi Calm Calm - N/A Rain Light Rain
12:45 PM 33.8 °F - 30.2 °F 87% 29.91 in 3.0 mi Calm Calm - N/A Snow Light Snow
1:45 PM 33.8 °F - 30.2 °F 87% 29.91 in 2.0 mi Calm Calm - N/A Rain Light Rain
3:45 PM 32.0 °F 24.2 °F 30.2 °F 93% 29.88 in 1.5 mi NE 9.2 mph - N/A Snow Light Snow
4:45 PM 32.0 °F 22.5 °F 30.2 °F 93% 29.87 in 6.0 mi ENE 12.7 mph - N/A   Overcast
5:45 PM 30.2 °F 20.2 °F 28.4 °F 93% 29.86 in 10.0 mi ENE 12.7 mph 18.4 mph N/A   Overcast
6:45 PM 30.2 °F 20.8 °F 28.4 °F 93% 29.85 in 10.0 mi ENE 11.5 mph 19.6 mph N/A   Overcast
7:45 PM 28.4 °F 16.6 °F 26.6 °F 93% 29.85 in 10.0 mi ENE 16.1 mph 20.7 mph N/A   Overcast
8:45 PM 28.4 °F 22.2 °F 24.8 °F 86% 29.87 in 10.0 mi NE 5.8 mph - N/A   Overcast
9:15 PM 30.2 °F 21.9 °F 26.6 °F 86% 29.87 in 10.0 mi ENE 9.2 mph - N/A   Overcast
9:35 PM 30.2 °F 21.9 °F 26.6 °F 86% 29.86 in 10.0 mi ENE 9.2 mph - N/A   Overcast
9:55 PM 30.2 °F 20.8 °F 24.8 °F 80% 29.86 in 10.0 mi ENE 11.5 mph - N/A   Overcast
10:15 PM 30.2 °F 23.4 °F 24.8 °F 80% 29.85 in 10.0 mi ENE 6.9 mph - N/A   Overcast
10:35 PM 30.2 °F 21.9 °F 24.8 °F 80% 29.85 in 10.0 mi NE 9.2 mph - N/A   Overcast
10:55 PM 30.2 °F 21.9 °F 26.6 °F 86% 29.84 in 10.0 mi NE 9.2 mph - N/A   Overcast
11:15 PM 30.2 °F 20.2 °F 26.6 °F 86% 29.83 in 10.0 mi NE 12.7 mph 17.3 mph N/A   Overcast
11:35 PM 28.4 °F 17.0 °F 26.6 °F 93% 29.81 in 5.0 mi ENE 15.0 mph 21.9 mph N/A   Overcast
11:55 PM 28.4 °F 17.5 °F 26.6 °F 93% 29.80 in 5.0 mi ENE 13.8 mph 17.3 mph N/A   Overcast